Regional Weather Roundup
Issued by NWS Upton, NY

Current Version | Previous Version | Text Only | Print | Product List | Glossary Off
Versions: 1 2 3 4 5 6 7 8 9 10 11 12 13 14 15 16 17 18 19 20 21 22 23 24 25 26 27 28 29 30 31 32 33 34 35 36 37 38 39 40 41 42 43 44 45 46 47 48 49 50
000 ASUS41 KOKX 182108 RWROKX REGIONAL WEATHER ROUNDUP NATIONAL WEATHER SERVICE NEW YORK NY 500 PM EDT FRI AUG 18 2017 NOTE: "FAIR" INDICATES FEW OR NO CLOUDS BELOW 12,000 FEET WITH NO SIGNIFICANT WEATHER AND/OR OBSTRUCTIONS TO VISIBILITY. NYZ071-072-176-178-NJZ106-104-182200- NEW YORK CITY METRO AREA CITY SKY/WX TMP DP RH WIND PRES REMARKS Central Park CLOUDY 80 77 90 VRB6 29.80F Bronx Bot Gard N/A 79 73 83 S2 29.80R LaGuardia APRT PTSUNNY 82 77 84 S14 29.77F HX 90 Kennedy INTL CLOUDY 78 78 100 S17 29.79F Breezy Point N/A 75 N/A N/A S15G21 N/A Newark/Liberty CLOUDY 83 77 82 S7 29.76F HX 92 Teterboro CLOUDY 83 77 82 S9 29.76F HX 92 $$ NYZ177-179-078>081-182200- LONG ISLAND NEW YORK CITY SKY/WX TMP DP RH WIND PRES REMARKS Jones Beach N/A 77 N/A N/A S13G18 N/A Matinecock PT N/A 79 N/A N/A S6G13 N/A Farmingdale CLOUDY 78 75 90 SW18G25 29.81S MacArthur/ISP CLOUDY 78 76 93 S13 29.81S Shirley CLOUDY 78 76 93 S12 29.82F Mt Sinai Harb N/A N/A N/A N/A S9G18 N/A Westhampton CLOUDY 76 73 91 S9G22 29.84F East Hampton CLOUDY 74 72 92 S8G16 29.83S Montauk N/A 75 73 93 VRB7 29.85F $$ NYZ052-065-067-182200- HUDSON VALLEY CITY SKY/WX TMP DP RH WIND PRES REMARKS White Plains PTSUNNY 79 75 87 S8 29.79F Larchmont Harb N/A 77 N/A N/A SE14 N/A Croton On Huds N/A 81 N/A N/A SE7 N/A Newburgh PTSUNNY 81 75 83 SW8 29.79F Montgomery CLOUDY 81 75 82 SW3 29.77F Poughkeepsie LGT RAIN 80 73 79 S5 29.76F Albany LGT RAIN 75 73 93 S5 29.77F FOG $$ NJZ001-105-106-008-010-013-015-019>022-104-182200- NEW JERSEY CITY SKY/WX TMP DP RH WIND PRES REMARKS Newark/Liberty CLOUDY 83 77 82 S7 29.76F HX 92 Teterboro CLOUDY 83 77 82 S9 29.76F HX 92 Caldwell CLOUDY 82 77 84 S3 29.76F HX 90 Somerville CLOUDY 81 78 91 S3 29.75F Linden FAIR 83 76 78 CALM 29.77F HX 91 Perth Amboy N/A 81 N/A N/A N3 N/A Sussex LGT RAIN 80 76 87 CALM 29.77F Andover N/A 77 75 93 CALM 29.79S Trenton MOSUNNY 85 77 77 S8 29.76S HX 95 Millville SUNNY 88 81 79 S7 29.77F HX 106 Atlantic City PTSUNNY 84 78 82 S12G24 29.78F HX 95 Wrightstown MOSUNNY 86 77 74 S7 29.73F HX 97 Toms River PTSUNNY 84 79 85 S15 29.78F HX 96 Belmar SUNNY 84 78 82 SE8 29.78F HX 95 $$ PAZ047>061-062-071-182200- EASTERN PENNSYLVANIA CITY SKY/WX TMP DP RH WIND PRES REMARKS Philadelphia CLOUDY 88 76 67 S7 29.77R HX 99 Allentown TSTM 76 73 91 MISG 29.81R FOG Scranton CLOUDY 80 75 84 SW3 29.78F $$ CTZ002-004>006-009-010-012-RIZ004-006-007-MAZ004-011-015-182200- SOUTHERN NEW ENGLAND IN CT CITY SKY/WX TMP DP RH WIND PRES REMARKS Bradley INTL CLOUDY 80 75 84 S8 29.79F Hartford CLOUDY 81 76 84 S10 29.78F Danbury CLOUDY 82 75 79 S9 29.80F Wtrbury/Oxford CLOUDY 78 75 90 SW6 29.82F Norwalk Harbor N/A 77 N/A N/A S13 N/A Bridgeport CLOUDY 80 75 84 S8 29.79S Meriden CLOUDY 79 74 84 S6 29.79S New Haven CLOUDY 78 74 87 S8 29.80F Chester CLOUDY 77 75 94 S9 29.83F FOG Groton CLOUDY 73 71 93 S8 29.82F FOG Wilimantic CLOUDY 78 76 93 S8 29.81F IN RI CITY SKY/WX TMP DP RH WIND PRES REMARKS Providence LGT RAIN 74 74 100 S9 29.85F FOG Block Island CLOUDY 74 72 93 S14 29.85F Westerly CLOUDY 74 72 93 S9 29.85F FOG IN MA CITY SKY/WX TMP DP RH WIND PRES REMARKS Boston CLOUDY 76 71 85 S15 29.82F Worcester CLOUDY 73 71 93 S8 29.84F FOG Westfield CLOUDY 78 75 90 S7 29.78F Provincetown LGT RAIN 73 69 87 S15G21 29.87F Nantucket CLOUDY 72 70 93 S13 29.90F $$ ANZ330-335-338-340-345-350-353-355-182200- COASTAL MARINE OBSERVATIONS STATION/POSITION TIME SKY/WX TEMP WIND PRES VSBY WAVE AIR SEA DIR/SP/G HT/PER (UTC) (F) (DEG/KT/KT) (MB) (MI) (FT/S) NY HARB ENTRANCE 1950 77 76 180/ 17/ 21 1008.2 3/ 5 GREAT SOUTH BAY 2030 77 78 210/ 14/ 16 N/A 23 SSW MONTAUK P 1950 74 71 1010.6 5/ 5 15 E BARNEGAT LI 2030 77 N/A 4/ 5 HUDSON CANYON 1950 77 75 180/ 17/ 21 1010.1 4/ 5 KINGS POINT 2030 78 75 210/ 12/ 13 1008.5 EXECUTION ROCKS NOT AVBL WESTERN LI SOUND NOT AVBL CENTRAL LI SOUND NOT AVBL EASTERN LI SOUND NOT AVBL ROBBINS REEF 2030 150/ 10/ 11 1008.9 $$ >>>>>>>>>>>>>>>>>>>>>>>>>>>> KEY <<<<<<<<<<<<<<<<<<<<<<<<<<< > < > SKY/WX - Sky Condition/Present Weather < > TMP - Temperature in Fahrenheit < > DP - Dew Point in Fahrenheit < > RH - Relative Humidity in Percent < > WIND - Direction (from) and Speed in MPH < > PRES - Mean Sea Level Pressure (inches of Hg) < > WCI - Wind Chill Index < > VSB - VISIBILITY IN MILES < > HX - HEAT INDEX < > TC - TEMPERATURE IN CELSIUS < > VRB - VARIABLE WIND DIRECTION < > < >>>>>>>>>>>>>>>>>>>>>>>>>>>> KEY <<<<<<<<<<<<<<<<<<<<<<<<<<<

USA.gov is the U.S. government's official web portal to all federal, state and local government web resources and services.